TimePST,TemperatureF,Dew PointF,Humidity,Sea Level PressureIn,VisibilityMPH,Wind Direction,Wind SpeedMPH,Gust SpeedMPH,PrecipitationIn,Events,Conditions,WindDirDegrees,DateUTC
12:56 AM,43.0,39.9,89,30.32,10.0,Calm,Calm,-,N/A,,Clear,0,2013-01-30 08:56:00
1:56 AM,45.0,41.0,86,30.32,10.0,SW,4.6,-,N/A,,Clear,230,2013-01-30 09:56:00
2:56 AM,46.0,41.0,83,30.31,10.0,Variable,3.5,-,N/A,,Clear,0,2013-01-30 10:56:00
3:56 AM,45.0,41.0,86,30.31,10.0,West,3.5,-,N/A,,Clear,270,2013-01-30 11:56:00
4:56 AM,46.0,42.1,86,30.30,10.0,SW,3.5,-,N/A,,Clear,230,2013-01-30 12:56:00
5:56 AM,46.9,39.9,77,30.31,10.0,SW,3.5,-,N/A,,Clear,230,2013-01-30 13:56:00
6:56 AM,46.0,39.0,76,30.32,10.0,West,3.5,-,N/A,,Clear,260,2013-01-30 14:56:00
7:56 AM,48.9,39.9,71,30.34,10.0,WSW,3.5,-,N/A,,Clear,250,2013-01-30 15:56:00
8:56 AM,55.9,41.0,57,30.35,10.0,Variable,3.5,-,N/A,,Clear,0,2013-01-30 16:56:00
9:56 AM,60.1,39.9,47,30.36,10.0,NW,3.5,-,N/A,,Clear,310,2013-01-30 17:56:00
10:56 AM,62.1,41.0,46,30.36,10.0,NNW,5.8,-,N/A,,Clear,340,2013-01-30 18:56:00
11:56 AM,64.9,41.0,42,30.34,10.0,Variable,4.6,-,N/A,,Clear,0,2013-01-30 19:56:00
12:56 PM,64.9,39.9,40,30.31,10.0,NNW,5.8,-,N/A,,Clear,340,2013-01-30 20:56:00
1:56 PM,66.0,39.0,37,30.29,10.0,North,5.8,-,N/A,,Clear,360,2013-01-30 21:56:00
2:56 PM,66.0,39.0,37,30.28,10.0,Calm,Calm,-,N/A,,Clear,0,2013-01-30 22:56:00
3:56 PM,66.9,39.9,37,30.28,10.0,NNE,3.5,-,N/A,,Clear,30,2013-01-30 23:56:00
4:56 PM,62.1,43.0,50,30.28,10.0,NNW,8.1,-,N/A,,Clear,340,2013-01-31 00:56:00
5:56 PM,59.0,41.0,51,30.27,10.0,West,4.6,-,N/A,,Clear,280,2013-01-31 01:56:00
6:56 PM,57.0,42.1,57,30.28,10.0,WNW,5.8,-,N/A,,Clear,290,2013-01-31 02:56:00
7:56 PM,55.0,44.1,67,30.29,10.0,WNW,5.8,-,N/A,,Clear,290,2013-01-31 03:56:00
8:56 PM,53.1,43.0,69,30.29,10.0,West,5.8,-,N/A,,Clear,270,2013-01-31 04:56:00
9:56 PM,52.0,43.0,71,30.29,10.0,Calm,Calm,-,N/A,,Clear,0,2013-01-31 05:56:00
10:56 PM,48.9,41.0,74,30.30,10.0,Calm,Calm,-,N/A,,Clear,0,2013-01-31 06:56:00
11:56 PM,46.9,41.0,80,30.30,10.0,Calm,Calm,-,N/A,,Clear,0,2013-01-31 07:56:00